Regional Weather Roundup
Issued by NWS

Home | Current Version | Previous Version | Graphics & Text | Print | Product List | Glossary On
Versions: 1 2 3 4 5 6 7 8 9 10 11 12 13 14 15 16 17 18 19 20 21 22 23 24 25 26 27 28 29 30 31 32 33 34 35 36 37 38 39 40 41 42 43 44 45 46 47 48 49 50
577
ASUS43 KDMX 170706
RWRIA

WEATHER ROUNDUP FOR IOWA
NATIONAL WEATHER SERVICE DES MOINES IA
100 AM CST WED JAN 17 2018

NOTE: "FAIR" INDICATES FEW OR NO CLOUDS BELOW 12,000 FEET WITH NO
SIGNIFICANT WEATHER AND/OR OBSTRUCTIONS TO VISIBILITY.

* - THESE STATIONS ARE NOT NWS STATIONS...THUS NOT UNDER NWS
QUALITY CONTROL.  THEY ALSO DO NOT REPORT WEATHER SUCH
AS PRECIPITATION OR FOG.

IAZ001>003-012>014-020>022-031>034-043>046-170800-
   NORTHWEST IOWA

CITY           SKY/WX    TMP DP  RH WIND       PRES   REMARKS
CARROLL *      CLOUDY     1  -4  78 SW7       30.57F WCI -11
CHEROKEE *     CLOUDY    -4  -6  89 CALM      30.54F
DENISON *      CLOUDY    -4  -8  84 CALM      30.58F
LE MARS *      CLOUDY     0  -4  85 S7        30.54S WCI -13
ORANGE CITY *  CLOUDY     0  -2  92 S7        30.49F WCI -13
SHELDON *      CLOUDY     0  -4  85 S8        30.49F WCI -15
SIOUX CITY     CLOUDY    -3  -6  87 E7        30.56F WCI -16
SPENCER        CLOUDY    -2  -7  79 SW7       30.52F WCI -15
STORM LAKE *   CLOUDY     0  -4  85 SW9       30.51F WCI -16
$$

IAZ055>058-069>071-079>083-090>094-170800-
   SOUTHWEST IOWA

CITY           SKY/WX    TMP DP  RH WIND       PRES   REMARKS
ATLANTIC *     CLOUDY    -4  -8  84 S3        30.61F
AUDUBON *      CLOUDY    -6 -11  77 CALM      30.58F
CLARINDA *     CLOUDY    -6  -9  84 CALM      30.66F
COUNCIL BLFS * CLOUDY     3   3 100 S6        30.60S WCI  -8
CRESTON *      CLOUDY     0  -4  85 W9        30.61S WCI -16
HARLAN  *      CLOUDY    -6  -9  84 SW5       30.63F WCI -17
LAMONI         CLOUDY    -1  -5  82 W7        30.62F WCI -14
RED OAK *      CLEAR     -4  -8  84 CALM      30.63F
SHENANDOAH *   CLOUDY    -4  -8  84 CALM      30.65F
$$

IAZ047>049-059>061-072>074-084-170800-
   CENTRAL IOWA

CITY           SKY/WX    TMP DP  RH WIND       PRES   REMARKS
AMES           CLOUDY    -6  -9  86 SW6       30.60F WCI -19
ANKENY *       CLOUDY    -4  -8  84 CALM      30.63F
BOONE *        CLOUDY    -2  -6  84 W7        30.57F WCI -16
CHARITON *     CLOUDY    -2  -6  84 W6        30.62F WCI -14
DES MOINES     CLOUDY    -1  -6  79 SW5       30.62F WCI -11
GRINNELL*      CLOUDY    -4  -8  84 W5        30.61F WCI -15
KNOXVILLE *    CLOUDY    -2  -9  71 W7        30.61F WCI -16
MARSHALLTOWN   CLOUDY    -5  -8  87 SW7       30.58F WCI -19
NEWTON *       CLOUDY    -4  -8  84 SW5       30.62S WCI -15
PELLA *        CLOUDY    -1  -4  85 W3        30.64F
PERRY *          N/A     -4  -8  84 SW7       30.60F WCI -18
$$

IAZ004>006-015-016-023>025-035-036-170800-
   NORTH CENTRAL IOWA

CITY           SKY/WX    TMP DP  RH WIND       PRES   REMARKS
ALGONA *       CLOUDY    -2  -2 100 SW10      30.52F WCI -19
CLARION *      CLOUDY    -6  -8  92 S7        30.56F WCI -20
ESTHERVILLE    CLOUDY    -2  -5  87 SW7       30.50F WCI -15
FORT DODGE *   CLOUDY    -6  -9  86 S7        30.56F WCI -20
MASON CITY     CLOUDY     0  -5  79 W10       30.54F WCI -16
FOREST CITY *    N/A     -2  -6  84 CALM      30.53F
WEBSTER CITY * CLOUDY    -8 -13  77 SW8       30.55F WCI -23
IOWA FALLS *     N/A     -1  -4  84 W9        30.57F WCI -16
$$

IAZ007>011-017>019-026>030-037>042-050>054-066-170800-
   NORTHEAST IOWA

CITY           SKY/WX    TMP DP  RH WIND       PRES   REMARKS
CEDAR RAPIDS     N/A     -2  -7  79 NW6       30.59S WCI -14
CHARLES CITY *   N/A     -4  -8  84 SW5       30.54F WCI -15
CLINTON *        N/A     -1  -5  82 W10       30.60R WCI -17
DECORAH *        N/A     -2  -6  84 W7        30.52S WCI -16
DUBUQUE          N/A     -3  -7  82 W6        30.54S WCI -15
MONTICELLO *     N/A     -2  -8  78 W5        30.59S WCI -12
OELWEIN *        N/A     -4  -6  92 W6        30.56F WCI -16
WATERLOO         N/A     -4  -8  83 W3        30.58F
$$

IAZ064-065-067-068-078-170800-
   EAST CENTRAL IOWA

CITY           SKY/WX    TMP DP  RH WIND       PRES   REMARKS
DAVENPORT        N/A      1  -4  79 W7        30.61F WCI -12
IOWA CITY        N/A      0  -6  76 W5        30.64F WCI -10
MT. PLEASANT * CLOUDY     0  -4  85 W5        30.64F WCI -10
MUSCATINE *      N/A      1  -4  78 W8        30.65F WCI -12
QUAD CITIES      N/A      2  -2  83 W8        30.61F WCI -12
$$

IAZ062-063-075>077-085>089-095>099-170800-
   SOUTHEAST IOWA

CITY           SKY/WX    TMP DP  RH WIND       PRES   REMARKS
BURLINGTON     CLOUDY     0  -5  79 W5        30.63S WCI -10
FAIRFIELD *    CLOUDY     0  -8  71 W5        30.63F WCI -10
FORT MADISON * CLOUDY     1  -2  85 W6        30.64S WCI -10
KEOKUK *       CLOUDY    -2  -6  84 W6        30.65S WCI -14
OSKALOOSA *      N/A     -3  -7  85 W7        30.63F WCI -17
OTTUMWA        CLOUDY    -2  -7  79 W6        30.63F WCI -14
WASHINGTON *   CLOUDY    -2  -6  84 W7        30.64F WCI -16
$$

ABBREVIATIONS USED IN REMARKS
   TC - TEMPERATURES IN CELSIUS
  WCI - WIND CHILL INDEX
   HX - HEAT INDEX
  VSB - VISIBILITY
$$





USA.gov is the U.S. government's official web portal to all federal, state and local government web resources and services.